Location: Alafon
(8.4500°N, 4.2333°E)
Time: 01:46:45
(UTC+00:00)

deb Explorer IX - Pass Details

Date: 26 July 2021
Orbit: 545 x 1092 km, 38.8° (Epoch: 16 September)

Event Time Altitude Azimuth Distance (km) Brightness Sun altitude
Rises 10:49:06 0° 204° (SSW) 2,751 ? 71.7°
Reaches altitude 10° 10:51:38 10° 189° (S) 1,905 ? 72.2°
Maximum altitude 10:55:08 23° 136° (SE) 1,325 ? 72.9°
Drops below altitude 10° 10:58:58 10° 83° (E) 2,112 ? 73.6°
Sets 11:01:56 0° 69° (ENE) 3,133 ? 74.1°
